Location: De Har
(53.3413°N, 6.6858°E)
Time: 16:31:50
(UTC+00:00)

NOSS 3-4 (C) - Pass Details

Date: 22 April 2026
Orbit: 773 x 1438 km, 63.4° (Epoch: 26 December)

Event Time Altitude Azimuth Distance (km) Brightness Sun altitude
Rises 03:34:08 0° 311° (NW) 3,720 6.4 -6.7°
Reaches altitude 10° 03:36:48 10° 302° (WNW) 2,862 5.7 -6.4°
Maximum altitude 03:42:48 34° 241° (WSW) 1,817 4.4 -5.6°
Drops below altitude 10° 03:49:39 10° 180° (S) 3,276 6.0 -4.7°
Sets 03:52:56 0° 172° (S) 4,329 6.7 -4.3°
